Location: Contre
(49.7477°N, 2.0963°E)
Time: 18:03:54
(UTC+00:00)

ITAMSAT 1 - Visible Passes

Search period start: 28 May 2024 00:00
Search period end: 07 June 2024 00:00
Orbit: 781 x 796 km, 98.8° (Epoch: 27 May)

Date Brightness Start Highest point End Pass type
(mag) Time Alt. Az. Time Alt. Az. Time Alt. Az.
28 May 9.0 20:57:03 10° SSW 21:01:48 36° W 21:06:34 10° NNW visible
29 May 8.1 20:26:37 10° S 20:31:45 63° WSW 20:36:55 10° NNW visible
30 May 10.0 21:38:27 10° SW 21:41:52 17° W 21:45:16 10° NW visible
31 May 9.3 21:07:06 10° SSW 21:11:38 30° W 21:16:11 10° NNW visible
01 Jun 8.4 20:36:29 10° S 20:41:32 52° W 20:46:37 10° NNW visible
02 Jun 10.1 21:48:57 10° WSW 21:51:44 15° W 21:54:33 10° NW visible
03 Jun 9.5 21:17:13 10° SSW 21:21:28 25° W 21:25:45 10° NW visible
04 Jun 8.7 20:46:24 10° S 20:51:20 44° W 20:56:17 10° NNW visible
05 Jun 10.2 21:59:43 10° WSW 22:01:38 12° W 22:03:33 10° WNW visible
06 Jun 9.8 21:27:24 10° SW 21:31:19 21° W 21:35:14 10° NW visible
